CAPE
2190 2594 2587 2881 2938 2487 2239 1456 1352 1532 1796 1707 1733 2258 2247 2093 1981 1435 1698 1800 1722 622 915 1094 1274 1747 582 966 589 726 1338 1228 1228 2317 2824 2334 2398 2726 2721 2436 2828 2613 2970 2863 2902 2934 2978 2992 2958 2822 2792 2833 2924 3076 3254 3376 3420 3573 3735 3908 4072 4297 4450 4524 4607 4650 4680 4894 4928 4912 4980 5077 5010 4964 4958 5011 5072 5012 4800 4664 4443 4374 4218 4083 4064
2101 2654 2973 2780 2534 2376 1425 1098 1620 2159 1488 1790 2482 2763 2497 2399 2174 2146 2142 2303 1888 1530 1527 1141 709 673 937 771 595 755 1344 1346 1524 1963 2634 2618 2263 2820 2974 2646 2653 2613 2900 3022 3160 3166 3250 3261 3368 3355 3385 3419 3488 3534 3606 3563 3649 3830 4054 4243 4474 4558 4580 4632 4764 4831 4894 4968 5010 4987 4900 5129 5293 5259 5138 5102 5102 5011 5052 4920 4639 3927 4152 4178 4099
2782 2776 2808 2441 2528 2250 1527 1236 1858 1706 2110 1882 2000 2062 1842 1690 1897 2351 3136 2566 2358 1893 2206 1702 684 452 738 650 678 618 549 862 855 731 2340 2987 2085 2553 2938 3080 2665 2742 2857 3025 3085 3288 3379 3541 3656 3734 3758 3799 3839 3926 3963 4118 4232 4217 4159 4184 4345 4540 4661 4722 4696 4643 4573 4578 4674 4816 4987 4916 4892 5106 5341 5282 5144 5187 5256 4996 4855 4720 4606 4342 3929
1944 2645 2434 2168 1766 1879 1646 2131 2058 2262 2066 1419 2459 2562 2981 1752 2697 2999 3753 3750 3048 2309 2209 1624 1134 418 957 493 551 542 721 620 427 491 1805 2486 2066 2318 2580 2720 3100 2886 2925 2888 3074 3126 3351 3473 3682 3805 3720 3780 3871 3967 3919 3996 4070 4260 4384 4488 4605 4713 4506 3850 3664 3793 3812 3889 3957 4107 4271 4802 4856 4584 4764 5196 5283 5336 5212 5133 5004 4963 4916 4802 4586
1503 1985 1907 1746 1386 2066 2085 2360 1926 2642 2200 1989 1906 2248 2478 2858 2721 2822 3642 3280 2354 1953 1232 1200 776 992 336 592 587 513 586 682 510 464 654 2049 2388 2248 2500 2396 2982 3302 3053 2984 3073 3194 3356 3511 3580 3548 3682 3666 3610 3721 4004 3966 4204 4547 4656 4784 4587 3858 3404 3296 3486 3837 3947 3962 4054 4199 4166 4411 4723 4968 5084 5291 5546 5532 5524 5447 5229 5087 4974 4968 4873
1208 1595 1671 1410 1743 2366 2121 1991 2794 2550 2804 2417 2918 3162 2765 2528 2482 2692 2218 2987 2410 1668 1476 875 536 648 1019 497 614 634 532 356 457 389 637 764 1553 2364 2098 2167 2374 3112 3080 3208 3353 3374 3442 3644 3821 3859 3925 4044 4147 4245 4307 4396 4282 4545 4671 3823 2978 3136 3625 3720 3759 3851 4026 4180 4096 3981 3924 4253 4883 5405 5434 5321 5467 5687 5547 5452 5351 5191 5162 5100 4951
832 2546 2274 1905 1918 2121 1981 2304 2384 2561 2363 3905 3286 2628 2779 3035 3402 3296 2033 1968 1410 1467 1538 756 504 641 1023 694 580 810 915 472 397 492 464 484 644 1200 2601 2400 2828 3197 2647 2678 3672 3738 3848 3924 3977 4048 4014 4274 4318 4243 4328 4218 4318 3984 3354 3178 2780 3071 3609 3531 3692 3904 3900 3831 4075 3985 4261 4618 5025 5515 5790 5734 5553 5368 5233 5071 5026 4977 4938 5065 4969
2240 3755 2850 2310 2138 2165 2493 3618 3512 3032 3868 3556 3794 3264 3330 4099 3229 2586 2785 2361 3246 1216 809 1144 510 363 729 500 500 578 452 608 482 384 422 715 771 1077 1775 2150 2775 3055 3370 2539 2633 3050 4087 4345 4386 4163 4337 4123 4198 4238 4097 4240 3840 2410 2359 2852 2940 3134 3359 3522 3762 3772 3862 3631 4131 4246 4542 5021 5436 5690 5787 5813 5714 5502 5304 5038 4822 4737 4761 4812 5044
3665 3774 3733 2442 2888 2145 2616 1966 3080 3079 4698 4162 3589 3204 3194 2183 4384 3964 2459 5012 3362 1728 762 767 519 395 545 502 928 1039 538 643 1012 397 455 874 708 515 901 780 1779 3057 2902 3216 2680 2714 3163 4526 4482 4636 4536 4635 4500 4459 4357 3558 2720 2513 2455 2875 3138 3040 3142 3471 3660 3624 3577 3546 3942 4527 4786 5212 5552 5594 5567 5579 5556 5513 5316 5102 4949 4809 4751 4747 4754
3755 4233 4276 3018 3693 4055 2794 2494 4258 3924 4512 4202 3971 2663 2696 2759 4098 4264 3163 4147 2974 2361 1261 484 262 325 569 409 292 678 450 779 1090 1497 690 547 555 535 686 368 1248 602 984 870 2587 3505 3037 3815 4321 4188 4818 4634 4379 4330 3321 1802 1687 1705 2536 2640 2597 2975 3240 3420 3155 3529 3394 3433 4150 4704 4977 5409 5808 5970 5911 5817 5636 5435 5224 5033 4940 4899 4857 4817 4792
3828 4134 4818 2980 2756 3708 2994 3582 3384 4616 5221 4389 2922 2914 2738 3334 3290 3642 3751 3861 3086 2245 1281 1344 714 173 347 379 600 1264 1299 834 620 912 556 464 190 776 365 667 498 962 492 755 1111 1528 2746 2247 2266 2778 3433 3900 4975 4938 2943 1677 1502 1929 2228 3125 2933 2955 3157 3337 3252 3136 3033 3587 4333 4718 5042 5538 5998 6218 6152 5916 5611 5348 5286 5237 5157 5047 4987 4941 4844
3595 3841 4423 4516 3050 2870 3414 3109 3651 3582 3882 3512 3003 3344 3368 3154 3445 2734 4006 3323 2787 1930 879 544 926 346 940 545 467 709 1160 714 289 601 874 371 484 417 317 347 616 452 632 359 605 529 1200 3024 3535 3271 3661 3890 3998 5020 4505 2555 2572 2425 2533 2952 3036 3226 3368 3153 3304 3354 3441 4054 4353 4722 5078 5793 6021 5820 5767 5628 5396 5242 5180 5119 5047 4981 4962 4873 4759
3317 3347 4722 4336 3456 3650 4035 4671 3580 3807 4195 4054 2875 3804 3704 3672 4381 3205 3218 3828 2899 1481 251 250 1575 1202 872 200 1075 662 640 826 881 494 412 183 484 277 350 117 618 500 311 248 274 207 983 1916 2376 2328 2896 4343 5070 4154 4967 3988 2683 2731 2994 3340 3656 3664 3702 3641 3585 3734 4030 4262 4483 4514 5694 5962 5612 5471 5535 5429 5232 5133 5076 4970 4909 4875 4820 4777 4685
3406 4401 4420 3416 3959 3873 4566 4998 4642 4352 4878 4035 4149 3262 3292 3398 3350 4028 2911 2879 2735 1361 977 1290 1434 1024 166 120 920 684 901 280 388 316 437 282 258 260 154 92 124 502 362 250 958 423 351 1489 3138 2528 2865 4333 4188 4437 5880 5227 5588 3818 3024 3416 3945 4223 4206 4217 4153 4241 4649 4710 4829 5681 5511 5423 5156 5100 4936 4669 4657 4997 4971 4852 4841 4796 4689 4652 4619
3507 4250 4325 3879 4118 4366 3953 4725 4187 4332 4212 4530 3410 4198 3368 3104 3302 3831 4032 3219 2451 1390 1501 826 838 767 1634 634 1211 474 773 174 250 213 247 94 203 261 343 103 146 556 842 697 809 1308 1030 2241 1988 2718 3959 4335 5244 4687 4778 3016 3296 3409 4108 4536 3864 3947 3989 4147 4432 4919 5394 5698 5908 5653 5407 4944 4913 4698 4663 4509 4652 4682 4466 4296 4349 4503 4563 4523 4503
2345 3107 2974 3783 3852 3716 3458 4911 5030 5012 5097 5182 4074 3036 4633 3219 2865 2900 3917 3404 2458 2052 2128 1784 762 1698 4048 1644 1056 122 413 820 1179 828 444 204 169 88 396 187 59 125 498 336 961 1290 1162 1710 1306 2725 4250 4377 4432 4659 4123 3864 4096 3721 5094 4075 3507 3160 4198 4888 5123 5470 5756 5556 5424 5222 4846 4745 4757 4790 4525 4560 4432 4472 4390 4106 3986 4034 4240 4361 4392
2626 2138 2595 3646 3645 3877 3632 3928 4291 4150 3879 4015 3860 2520 2187 2182 4322 5089 3651 3976 2952 3083 2818 1928 1539 2040 3226 3703 2719 1767 1180 802 434 1719 924 438 962 165 520 190 471 800 300 786 841 884 685 711 834 1580 2894 5251 4805 5261 5371 3541 3441 6121 5014 4093 3657 3659 4447 5036 4814 5276 5334 5043 5127 5098 4932 4776 4437 4426 4328 4286 4405 4573 4228 4057 3928 3928 4135 4236 4290
2120 2581 3337 3848 3502 3986 4170 4521 3098 3510 3962 4082 3749 3457 2861 2465 2431 3176 3412 3560 4629 4276 2907 2881 2101 2762 1070 3444 3186 1984 2101 972 1352 1522 1712 1530 601 274 291 181 450 1557 1292 848 935 1114 1263 1234 1350 2903 4234 5009 4032 3504 3452 3528 4535 5033 7381 6547 4082 3971 4586 4918 4966 4669 5098 4672 4750 4598 4776 4693 4280 4313 4212 4213 4385 4346 4150 3972 3858 3913 4135 4165 4166
2118 2349 2952 3096 3261 4644 4022 4230 4267 3267 3089 3935 3679 1928 2187 1698 3049 3439 3907 4243 4775 5248 4328 2526 3379 1998 747 1236 538 910 1879 2245 2771 2480 1755 3377 2402 836 320 146 180 403 705 849 632 844 1250 1436 914 1957 1578 2591 3351 3297 3328 3314 2418 3097 3029 3235 2701 4455 4616 4609 4414 4433 4759 4822 4425 4347 4714 4478 4232 4273 4122 4100 4127 4206 4049 3866 3848 4028 4115 4041 4048
2178 2849 3368 3043 4085 4112 4439 3706 3971 2881 2960 3033 2835 2146 2120 3553 4060 3924 4074 5824 3934 3734 3809 2657 3118 3740 2669 2373 1554 1096 877 842 1063 1950 1808 1620 2286 1436 308 439 410 786 656 1025 1902 2088 1335 1574 1336 1440 2362 2659 3869 4224 3668 2860 3268 4104 3432 3090 3521 3368 4269 4007 3728 4137 4694 4299 3937 4072 4516 4306 4176 4106 4058 4011 3948 4082 4011 3783 3971 4005 3990 3810 3829
2547 2266 3463 3435 3290 3802 3674 3561 3993 3510 3380 3191 2446 2540 2799 3624 4274 4331 4273 3880 3685 4604 4247 3017 2420 2840 2388 3284 2358 2030 1090 897 1664 1859 2476 1578 1783 1510 1635 1940 1452 1141 1139 834 1255 1800 1064 1106 2410 1615 1892 2270 3708 4282 4026 4617 4434 3332 3037 3435 3147 3905 4228 3640 3652 4257 4165 3654 3850 4060 4088 4153 3971 3934 3806 3803 3823 3719 3832 3913 3758 3952 3903 3755 3657
2561 2951 3231 3309 3389 3425 3671 2836 3038 2410 2706 2007 2154 3147 3358 3689 3278 3130 3578 4154 4535 3454 3578 4062 4009 3068 2615 3628 4574 3025 2162 1219 1390 2851 4049 2528 2035 1473 1394 2519 2509 3652 1887 1477 3039 2305 1472 1950 1954 1793 1215 2140 3605 3650 3725 4023 4782 4378 3217 3366 4242 3558 3079 4154 4055 3586 3164 2945 3742 3636 3905 3856 3690 3712 3676 3634 3556 3467 3750 3554 3608 3564 3624 3648 3577
1510 2562 2719 2468 2641 3100 2518 2395 2303 2822 3356 2613 3197 2363 2152 2387 2438 3302 3367 3677 3891 4379 3391 3383 2897 2717 1644 2222 3097 1437 2262 2325 3488 2237 1769 1890 1577 1842 1646 843 792 732 1720 816 2717 1258 2112 2352 1447 1530 3800 2907 3475 4458 3921 3407 3475 2418 2509 2150 2373 3794 3218 3969 3363 2939 3043 2634 2904 3396 3557 3581 3521 3528 3321 3357 3301 3343 3563 3405 3354 3401 3268 3227 3252
1839 1674 1701 1757 2359 2817 2751 2158 2643 3116 3054 2761 2713 2324 2112 2270 2789 4473 4277 3535 3887 4202 3077 3587 2465 2948 2708 1521 1183 737 1170 1158 1510 1851 2667 3655 1674 2212 1810 1723 1545 998 1012 1918 1839 2428 2213 2230 1552 3137 2722 2360 2952 4286 4118 3154 3226 3465 3567 2660 2537 3573 2888 3376 2556 2816 2605 2859 2805 3236 3224 3194 3238 3167 3107 3248 3089 3135 3096 3038 3230 3228 3053 2700 2646
1797 1027 766 1200 2076 2911 2769 2925 3172 3230 3209 3947 3712 3143 3619 3202 3057 2883 3059 3951 4198 4214 4229 3400 2656 2495 2586 2048 1468 1184 843 952 1178 898 1008 1781 1425 1105 2470 1213 1558 1482 1510 1083 1334 2649 1623 1292 1278 1998 1732 1957 2054 2354 2145 2098 3088 3486 2839 3541 2360 2290 3275 3122 2548 1857 2774 2236 2606 3044 2924 3094 2892 2894 3027 3092 2950 2942 2734 2895 3090 2956 2766 2430 2233
922 1318 806 662 999 2002 2790 2642 3202 3356 3435 3890 3790 3579 3444 3939 3084 3319 2639 3694 3533 3578 4366 3188 2934 1993 1929 1805 1340 1370 1222 924 796 994 1013 875 1309 1476 1642 2124 1189 1120 1708 1224 1597 1337 1318 1018 1291 2173 2540 2702 2549 2619 2150 1775 2508 2144 2096 2325 2634 1968 2221 2377 2930 2930 2020 2508 2661 2586 2732 2747 2708 2787 2862 2874 2816 2798 2702 2684 2828 2580 2334 2209 1890
1373 1636 1207 1320 1075 1671 2449 2100 2816 3302 3560 3803 3198 3572 3899 3398 3715 4052 3915 3713 3617 3780 3342 2537 2019 1606 1987 2242 2160 1822 1792 1602 867 474 395 617 1931 2504 1957 2890 1612 1360 1683 2187 1607 1306 2150 1377 1595 1946 2677 2117 2855 2670 2416 2610 2137 1387 1812 3160 2234 2088 1820 2086 2178 2218 2354 2671 2568 2609 2535 2549 2482 2601 2556 2700 2622 2551 2494 2407 2506 2388 2187 1796 1617
1319 1537 1191 1167 1415 1590 2358 1732 2632 2810 3186 3441 3745 3253 3820 3530 4098 3740 3747 2474 2658 3034 3459 2338 1898 1792 1452 1845 2260 1679 1551 1231 1032 948 769 887 1924 2580 3005 2628 2177 2820 2813 2621 1878 1765 1145 1137 1793 2481 2870 4367 4080 4048 4146 2278 2169 1802 1731 1605 3350 1627 1434 1493 1586 1762 1916 1702 1822 1998 2350 2316 2286 2322 2300 2295 2388 2300 2074 2040 2119 2018 1858 1651 1369
980 765 1059 1326 1440 1457 1133 1010 2480 2604 2790 3232 3091 3434 3827 3826 3472 4066 3782 3107 3317 3326 3116 3206 3183 2059 1708 1531 2254 2643 2497 2348 1890 1258 1757 3168 1582 2128 2310 2664 3291 2821 3354 3177 3204 2410 2174 927 1660 2750 3020 3785 5349 3431 3291 3676 2692 1736 1224 1218 3082 2018 1917 1268 1189 1396 1297 1091 1270 1488 1992 2034 1931 2039 2020 1952 1906 1813 1540 1517 1561 1525 1564 1317 1299
544 439 796 1283 1459 1911 1672 1932 1866 1637 1887 2057 2605 2878 3501 3581 3622 4308 3654 4081 3840 3720 3648 3367 2895 2652 2386 2030 1618 1908 2131 1817 1594 1200 1875 2148 1436 1438 2361 3447 3262 3420 3798 3087 3359 3094 2460 1434 1116 3493 3415 4264 3172 4021 2936 3306 2074 1994 1433 1044 794 2967 1968 803 1197 1040 964 1043 1271 1420 1762 1616 1602 1459 1431 1419 1344 1231 971 950 990 964 992 930 858
1190 2246 1402 1016 1844 1888 2337 1794 1860 2516 2443 1884 2858 3012 3370 3510 3038 3326 3386 4235 4336 4280 4338 3951 3137 2599 2630 2278 2117 2033 2119 2210 2472 1876 1784 2042 1987 1860 1827 4311 3564 4028 4455 3985 3379 3856 2344 2396 1960 1930 1787 2912 1743 1934 1796 1830 1787 1570 1288 820 1662 2298 990 848 1073 920 956 1155 1264 1267 1279 1150 1252 1261 1099 980 860 763 704 694 639 583 614 668 677
427 953 857 959 1195 1466 1287 1128 878 976 1590 1389 1646 2732 3029 3010 2762 2127 2317 3660 3691 3826 3260 2514 1803 2072 2691 2735 2894 2970 2897 2681 2366 2206 2203 2184 2028 1924 1912 2561 4256 3507 4771 4276 3513 3558 3758 2986 2657 2364 1745 2089 2084 2430 2188 2016 1003 1184 1747 835 633 690 947 1509 934 837 911 884 1156 1277 1005 1192 1226 1010 850 798 713 606 470 428 398 1 83 90 0
537 460 621 762 1421 1461 1416 1736 998 1164 1735 1854 1698 2106 2894 3398 3473 3496 3489 3611 3874 3700 4013 3745 3031 3346 3524 3270 2880 2928 3314 2880 2753 2027 1690 1772 1692 1582 1984 2732 2881 3821 4205 4388 3919 3870 4127 3600 3373 2880 2139 2119 1965 2312 2331 1370 1515 1698 1032 1249 1872 1576 842 867 1667 822 838 933 1237 1213 1158 1283 1228 1043 1024 924 804 447 20 0 0 0 0 0 0
731 523 660 408 741 1070 1114 1538 1666 1139 1996 2201 1451 1423 2435 3128 2976 2110 2354 3048 4122 4238 4243 4422 4112 3277 3190 3269 3476 2548 3032 3113 2574 1954 1616 1185 1056 870 1231 1485 2077 2098 4134 4355 3513 3082 2919 3515 3601 3394 2882 2114 1927 1989 2788 2314 2042 2159 1511 1106 679 476 388 1681 1796 1144 824 1076 1132 1290 1158 1375 1174 1097 1258 1173 804 430 0 0 0 0 0 0 0
538 593 621 429 1196 1319 1254 1351 2001 1664 2259 1961 1371 1478 1706 2593 2607 2222 1897 2348 2644 2817 3372 4001 3468 3096 2741 2884 2511 2417 1948 1999 2332 1814 1363 1370 1274 1967 2009 1971 1964 1762 2814 3693 3976 3254 3241 3707 3294 2588 3237 3293 2750 2797 2397 2263 2121 1980 1961 1663 1043 528 670 551 1257 1721 1100 1127 1065 1160 1275 1363 1176 1156 1339 1272 834 198 0 0 0 0 0 0 0
704 693 603 886 1388 2044 1682 1532 1978 1898 1700 1539 1369 1419 1915 2282 2464 3034 3058 2962 2395 2405 2502 2548 2348 2743 2817 3233 2773 2482 2421 2222 2794 2494 2228 1887 1968 2323 2098 2347 2903 2761 2888 3027 3800 3596 4088 3332 4478 3673 3437 3258 3309 2718 2258 2291 2109 2369 2368 2061 1787 1376 1646 1351 1198 1518 959 954 1143 1236 1404 1351 1181 1229 1338 1259 876 333 0 0 0 0 0 0 0
828 901 1608 1670 1716 2301 1268 1516 1541 1705 1600 1627 1718 1343 1411 1686 2073 1975 2299 2857 2946 2791 2673 2770 2559 2900 3027 2928 2992 2842 2593 2762 2679 1866 1449 1951 1998 2075 2045 2911 2870 2632 2920 3535 3512 4287 4561 3953 4300 3736 3525 3062 3828 3141 2661 2338 2710 2487 2676 2971 2634 2537 2230 1424 1217 956 935 1038 1098 1341 1459 1417 1219 1261 1346 1219 832 435 0 0 0 0 0 0 0
1476 936 1538 1595 1513 1802 1933 1706 1608 1825 1984 2016 2115 2001 1495 1403 1841 1786 1983 2509 2564 3149 3016 2575 2648 2682 2147 2584 2726 2519 2387 2455 2265 2096 2587 2701 1917 2004 1767 2188 3243 3027 2834 2807 4392 4110 3401 3582 3535 3364 3841 2988 3505 4366 3576 3320 2593 2297 2473 2783 2986 3036 1650 1287 1288 1458 1205 832 651 1030 1273 1449 1313 1298 1312 1144 713 413 0 0 0 0 0 0 0
907 837 783 1312 1988 1789 1949 1734 1408 1958 2304 1832 2107 2459 2132 1980 1961 1878 1334 2221 2689 2959 2775 2788 2706 2221 2393 2518 2914 2644 2691 2810 2465 2389 2660 2412 2192 2785 1984 2651 2635 3149 2222 1808 2749 3512 3360 2632 2644 2878 3164 3026 3078 3234 3914 3170 2960 2806 2665 2679 2302 2120 1456 1255 1255 1392 1256 1366 1039 1056 1358 1451 1341 1358 1255 1007 570 275 0 0 0 0 0 0 0
353 655 858 865 648 2113 1784 2019 2230 2195 2335 2292 2628 2686 2348 1910 1842 1783 1844 1696 1526 2242 2517 2657 2093 2064 2090 2083 2078 2291 2181 2344 2776 2568 2010 2531 3375 2898 2616 3755 3077 3756 3382 2841 2885 3273 3376 2926 2918 2920 3553 3597 3928 4076 3860 3410 3228 3960 2340 1849 1717 1336 1039 1650 1406 1342 1216 1643 1728 1441 1599 1400 1385 1301 1180 800 394 203 346 0 0 0 0 0 0
790 458 799 762 987 832 2128 2572 2459 2207 1955 1862 1792 1786 2676 2390 2294 1749 1367 1599 1672 1766 1945 1635 1910 2007 1807 1841 1461 1632 2494 2908 2434 3240 2493 3118 2769 3350 4107 3559 2823 2795 2925 2059 2716 2926 3256 3178 3155 3304 2956 3293 3474 3751 3724 3709 3647 3285 2716 1488 1583 1610 1778 1158 1321 1562 1328 1311 1107 1319 1205 1407 1354 1465 845 682 108 343 366 0 0 0 0 0 0
3164 2790 2486 2225 1422 1290 1812 1871 1941 1866 1732 1945 1724 1266 1342 2696 1988 1799 1501 2196 2277 2398 3244 2992 2498 2327 2216 1737 2163 2304 2446 2546 2645 2928 2629 2796 2621 2386 3003 2307 2387 2921 3412 3423 3652 3446 3059 2512 2542 2172 2127 2216 2380 3250 2476 3208 3720 2476 2031 1894 1402 1961 1348 1370 1919 1883 2409 2133 1715 1425 2093 1642 1459 1528 987 480 381 320 268 0 0 0 0 0 0
2201 3529 2250 1844 1619 1425 1205 939 1326 2044 1384 1461 1156 1116 1193 1200 2426 2761 2241 2432 2515 2234 2259 1683 2762 2716 2696 1887 1586 1868 2350 2440 2203 3276 2495 2044 2036 2316 2584 2899 3228 3101 2833 3216 3132 3615 3186 2584 1875 2022 1947 1784 2178 3230 2749 3146 3321 2512 2335 2202 2272 2002 1734 1346 1259 1382 3923 3134 3760 2933 2239 1911 1801 1715 1727 578 467 316 0 0 0 0 0 0 0
2258 2142 1926 2115 2320 1837 1549 1528 1365 1246 1314 1536 525 921 1218 1268 1729 2751 1971 1798 2448 2002 1582 1600 1665 1967 2286 2544 1990 1769 1900 2244 2291 2736 2308 1882 1670 1839 2037 2285 2584 3034 3091 3296 3186 2897 3229 3200 2376 1845 1897 2046 2301 2027 1921 2988 3169 2824 2484 2138 2292 1994 2137 2051 1614 1084 2364 2742 2368 2489 2831 2086 1956 1428 754 617 364 0 0 0 0 0 0 0 0
2066 1894 2352 2501 2208 2107 1849 2270 1732 1306 1374 818 751 815 899 1087 1115 1743 2259 2054 1790 2335 1955 1445 1537 2405 2686 3161 2875 2563 2550 2890 3216 2822 2898 2902 2848 2864 2714 2545 2565 2733 2871 3016 3025 3065 2607 3072 2316 1897 2093 2713 2205 1742 2373 2047 2266 2508 3176 2629 2461 2748 1804 1911 2190 1396 2002 1567 2118 2360 2153 1635 2111 1496 544 274 33 0 0 0 0 0 0 0 0
1819 1946 2037 2268 2545 3030 3320 2897 2597 1895 1805 825 871 749 959 939 977 1263 1950 2098 2105 2300 1632 1272 1108 1658 2282 2744 3373 3425 3046 3377 3684 3213 2990 3014 3023 3076 3098 3217 3174 3185 2851 2444 2385 2668 2437 2255 2406 2459 2432 2548 2417 2369 2740 2131 2500 3007 3347 3188 2968 2688 2467 1809 1850 2423 2564 1338 1498 1069 1526 1774 1728 1425 383 131 0 0 0 0 0 0 0 0 0
1772 1831 1684 1780 2125 2339 2352 2195 2256 2007 1645 1084 977 961 895 899 938 1088 1926 2111 2346 2399 2314 2387 2336 2452 2748 2960 2960 3118 3347 3207 3451 3493 3018 2790 2952 2970 2980 2734 2535 2285 2263 2264 2091 2072 2070 2054 2098 2171 2224 1967 2204 3021 3171 3068 2730 3249 3399 3248 2790 2153 2109 3569 2031 2520 2221 920 368 637 1160 1036 1562 1484 810 88 0 0 0 0 0 0 0 0 0
1439 1456 1628 1743 2090 2519 2464 2039 1683 1545 1450 1183 968 965 989 1044 969 1087 1873 2329 2238 2369 2574 2953 2628 2936 3096 2579 2980 3395 2521 2085 3035 2797 2783 2728 2487 2167 2634 2568 2601 2470 2026 1938 1574 1470 2167 2402 1928 1474 1145 969 1233 1577 2468 2598 2828 3284 3186 2861 2270 2468 2769 3038 2252 2018 2454 434 184 42 117 205 695 775 1075 86 0 0 0 0 0 0 0 0 0
1242 1240 1234 1330 1829 2014 2062 2084 1495 1318 1135 1097 1186 1210 1115 968 927 1357 1786 2053 2424 2229 2460 2357 2338 2134 2073 1958 1759 1947 1676 1752 2045 2009 1927 1855 1922 2059 2002 2027 1967 1909 1754 1539 1634 1290 1065 940 816 854 1060 1067 1213 1680 1876 2220 2252 2387 1809 1613 2531 2934 2551 2338 1506 1349 1553 390 172 11 60 296 307 14 260 13 0 0 0 0 0 0 0 0 0
758 658 856 813 1137 1645 1360 1491 1220 1421 1179 1144 1245 1254 1140 889 770 1204 1865 2430 1962 1747 1549 1630 1509 1465 1316 1434 1284 1185 1534 1398 1593 1904 2107 2025 1922 1724 1615 1467 1554 1593 1578 1342 1418 1397 1050 971 782 667 704 881 1021 1313 1805 1927 1694 1405 1518 1259 1854 1886 2115 1771 1216 1159 602 291 141 104 118 454 23 42 91 10 56 0 0 0 0 0 0 0 0
382 226 333 526 720 786 1002 1227 1126 1152 1164 1089 1104 1138 1043 875 804 856 1636 1531 1346 1299 1444 1722 1680 1427 1454 1196 954 1128 1028 1252 1596 1804 1723 1530 1454 1484 1426 1254 1151 1092 1250 1408 1938 1700 1369 1003 882 846 902 826 862 1084 1265 1364 1385 1429 1265 952 679 1204 1452 1143 937 788 561 357 202 121 124 51 31 0 0 0 0 0 0 0 0 0 0 0 0
Wind_Speed
9 10 12 14 16 14 13 11 10 8 7 7 9 10 11 10 10 11 9 10 10 6 7 6 10 11 7 6 7 8 10 5 7 2 0 1 3 8 13 13 13 14 15 15 15 14 14 13 13 13 13 14 14 13 11 11 12 14 15 15 14 15 14 13 13 12 11 11 11 12 12 13 15 17 18 19 21 24 26 28 28 29 29 29 29
10 13 13 15 16 14 12 11 10 9 9 10 10 11 11 14 9 13 8 7 10 5 9 10 11 7 6 6 5 6 7 6 6 4 1 1 1 5 12 12 12 13 14 14 14 14 14 15 14 14 14 14 14 13 12 12 12 14 15 14 15 16 13 12 13 12 10 9 10 11 12 14 16 18 19 21 23 25 27 28 29 30 31 31 31
17 14 15 15 15 15 11 10 9 8 9 11 11 12 10 9 10 11 5 9 11 5 7 13 8 6 6 5 3 4 6 5 5 3 2 2 2 3 8 13 13 15 15 16 16 17 17 17 17 16 16 15 15 14 12 13 14 14 14 15 16 17 13 11 11 10 9 8 9 11 13 15 17 18 20 22 23 25 26 28 30 32 33 33 33
13 16 14 16 15 12 11 9 9 9 11 10 11 10 13 10 7 9 5 8 9 5 8 9 11 7 7 4 5 4 5 3 4 2 3 5 7 7 9 12 19 21 22 22 22 23 22 21 19 19 17 16 16 16 14 15 15 15 15 16 17 17 14 12 12 12 10 9 9 10 13 16 18 20 21 23 24 25 26 28 31 33 35 35 34
14 18 14 14 14 12 11 12 8 11 13 9 11 12 13 8 7 7 6 9 12 8 6 7 9 9 6 5 6 6 3 5 2 2 4 8 10 11 13 15 18 25 27 26 26 25 25 24 22 21 18 17 17 17 15 15 14 15 16 16 16 19 18 15 14 13 11 9 9 10 13 15 18 20 21 23 24 26 26 29 32 35 36 37 36
15 18 15 13 13 14 10 8 10 9 11 12 12 12 12 9 9 7 6 9 8 7 7 7 2 7 8 3 3 4 5 2 3 1 4 4 8 11 12 13 14 15 17 24 25 25 25 23 22 20 19 17 18 20 16 13 14 16 16 17 19 21 19 17 15 13 11 9 9 10 11 13 16 19 21 22 23 25 26 30 34 35 37 38 36
16 17 15 12 12 14 10 10 8 12 11 12 12 13 10 7 9 9 5 10 9 6 8 5 3 8 2 4 2 6 6 5 2 4 3 5 5 9 12 12 12 13 14 14 19 23 22 24 24 22 20 18 19 21 15 13 16 17 18 20 21 19 17 17 16 14 12 10 9 9 9 11 15 18 20 22 22 22 26 30 32 33 35 36 35
16 16 14 14 12 12 10 10 11 14 15 8 9 11 7 5 6 5 5 7 8 9 6 9 2 4 5 5 5 4 1 3 1 3 5 7 6 5 8 10 14 14 16 14 14 17 23 23 25 23 22 21 20 21 17 21 24 22 20 19 19 19 19 19 17 16 13 11 10 9 9 12 15 18 20 22 20 22 26 29 31 33 34 33 33
14 15 17 14 12 10 9 9 11 14 13 11 6 8 6 3 5 3 4 7 9 8 7 4 4 1 3 3 1 5 4 2 6 2 4 5 7 8 7 9 11 15 15 15 15 16 22 26 24 23 23 22 20 18 15 19 21 20 21 23 22 20 20 21 19 17 15 12 11 10 11 13 15 18 21 21 21 25 28 29 30 32 33 32 29
11 12 10 12 12 12 15 11 13 11 11 11 8 9 5 6 5 7 5 6 7 8 7 5 5 3 3 3 3 2 3 3 4 2 1 3 7 9 9 11 11 12 14 13 16 17 18 23 25 23 21 20 21 19 16 17 17 13 18 24 24 22 20 21 20 19 16 13 12 13 12 13 16 19 21 21 24 27 29 29 30 31 32 31 28
9 9 10 9 10 12 15 11 12 11 8 9 6 7 6 2 5 6 6 5 1 5 6 8 10 1 3 4 3 3 4 1 1 3 6 7 8 8 12 11 12 10 10 12 14 18 17 16 17 16 16 23 23 25 31 23 21 18 19 21 20 19 20 21 21 20 19 17 15 14 13 15 18 21 21 23 25 26 28 29 30 31 31 30 28
9 9 9 11 12 13 13 10 12 9 7 9 8 7 5 3 3 5 6 5 2 5 3 4 6 5 8 3 2 2 5 2 2 6 5 7 8 6 6 11 10 10 12 11 13 15 14 14 14 14 15 20 27 25 39 39 30 25 26 24 20 19 20 22 23 23 23 20 17 15 16 18 20 20 21 23 24 25 26 28 29 30 30 29 28
9 8 9 9 13 15 14 12 13 8 6 7 8 9 2 4 5 2 5 5 4 4 4 5 5 5 5 7 1 3 1 2 4 6 4 6 5 4 6 7 10 13 10 13 13 10 13 12 13 13 14 14 21 24 27 45 42 34 32 27 24 23 23 25 27 27 26 24 21 19 20 21 20 19 20 21 22 23 25 27 28 29 29 29 29
9 9 10 9 10 13 12 8 10 9 6 4 6 6 4 5 6 3 3 5 5 4 6 6 6 4 2 5 2 3 2 3 6 4 5 2 2 8 6 nan 7 12 10 12 9 9 8 11 9 11 11 14 16 14 18 23 32 48 46 36 30 28 28 29 30 30 29 28 28 25 21 19 17 17 18 19 20 21 22 25 26 27 28 29 29
8 9 10 10 12 12 11 7 5 8 6 4 6 5 5 6 3 3 5 6 6 9 4 4 4 6 4 3 3 0 4 3 2 5 5 nan 4 3 2 2 6 2 6 7 10 5 3 4 9 9 10 13 12 13 15 18 19 26 30 38 42 39 38 39 39 37 35 31 24 20 18 16 16 16 16 17 18 19 20 22 23 24 27 28 29
7 8 12 9 9 9 10 10 5 4 5 4 7 5 5 4 1 4 4 6 8 7 10 5 5 8 8 5 3 2 3 1 0 4 6 5 6 nan 3 3 nan 4 5 7 2 4 6 7 8 8 9 11 10 12 13 16 19 21 21 23 24 24 27 28 27 25 23 21 18 16 16 16 16 16 15 16 17 17 18 19 19 22 24 26 28
8 9 10 8 9 8 9 7 4 4 3 4 5 6 4 3 1 4 4 4 8 7 8 11 12 6 7 6 4 5 4 2 4 3 2 2 1 3 9 10 5 5 7 6 2 6 9 9 7 9 11 11 12 13 15 15 13 14 15 19 18 21 22 21 21 21 19 17 15 15 15 16 16 15 15 15 15 15 16 17 18 19 21 22 26
8 9 7 6 6 4 4 8 4 3 4 4 6 5 2 3 2 3 5 6 5 8 8 10 9 8 3 1 3 2 2 2 2 2 3 1 4 9 5 3 6 6 8 9 5 8 10 11 10 10 14 16 14 14 14 14 15 15 14 17 19 18 18 20 20 18 17 16 15 14 15 16 16 15 15 14 14 15 17 17 17 18 19 20 24
8 7 4 6 5 4 6 3 6 4 2 1 3 3 5 4 6 1 3 5 6 4 7 7 11 8 10 11 7 4 3 3 2 1 2 2 1 1 3 5 4 5 5 8 10 8 8 5 4 9 13 10 10 11 13 13 11 10 11 14 14 17 17 18 18 17 17 16 15 14 15 15 15 15 14 14 14 15 17 18 17 18 17 18 22
8 6 4 5 6 6 3 4 2 3 2 2 3 2 2 4 1 4 5 7 6 6 6 6 6 8 8 8 9 5 1 0 3 3 3 0 3 2 3 5 4 5 6 8 9 9 8 8 7 9 10 8 12 12 10 10 10 9 11 16 17 17 18 17 17 17 16 15 14 14 14 14 13 14 14 14 14 15 17 17 17 16 16 17 20
5 5 5 4 2 2 2 2 3 3 2 1 1 5 3 2 4 5 4 4 5 4 4 6 6 2 5 5 5 4 6 3 5 4 3 3 3 1 4 5 5 4 5 8 10 10 10 10 9 10 12 10 10 9 7 7 9 11 10 18 18 20 19 18 18 17 15 14 13 13 13 12 13 13 12 12 13 14 16 17 16 15 15 16 18
3 4 4 4 3 3 2 1 1 1 2 2 2 4 3 1 3 4 4 6 6 6 5 3 4 4 2 2 1 2 2 1 4 5 4 5 3 2 3 7 4 7 5 5 8 7 5 6 8 10 10 10 7 7 7 8 9 11 14 19 20 19 19 18 17 17 16 15 14 13 12 11 11 10 10 11 11 13 15 16 16 15 14 14 16
0 2 2 1 2 2 1 0 1 2 2 3 3 2 2 2 2 2 3 4 3 4 6 4 4 3 4 3 3 0 1 2 6 5 2 4 1 3 2 3 5 3 5 5 5 8 8 6 7 9 12 10 8 10 8 8 10 6 12 19 20 19 18 17 17 18 18 17 15 13 11 9 9 9 9 10 11 12 14 14 15 15 14 13 14
2 3 2 1 2 2 3 3 3 3 2 3 4 1 5 6 5 5 3 2 3 4 5 7 8 6 3 4 4 4 1 3 6 7 6 5 4 3 1 2 1 1 1 4 7 5 4 7 7 9 7 5 9 10 8 8 10 11 13 21 22 21 19 18 18 19 18 18 17 14 12 10 10 10 10 10 11 12 12 12 13 14 13 11 12
2 1 4 2 3 2 2 4 4 3 3 5 6 6 4 3 5 2 3 2 3 2 2 3 3 3 6 7 3 1 1 5 4 4 4 9 4 1 2 2 2 1 3 3 3 4 5 5 4 9 10 11 11 11 10 8 9 12 15 18 20 21 20 20 20 19 18 19 16 15 14 13 12 12 12 12 11 11 10 10 11 11 12 11 10
1 3 3 2 2 3 2 3 4 4 4 4 4 5 5 7 5 4 5 2 3 5 3 4 3 3 1 1 4 5 5 3 5 5 5 9 1 3 3 3 3 2 3 2 4 3 1 2 4 7 11 12 11 9 7 7 11 15 17 17 21 23 23 22 21 21 20 18 17 15 14 14 13 13 13 12 11 10 8 9 9 8 9 10 10
3 5 4 4 3 4 3 2 3 3 3 3 2 3 4 4 7 7 7 6 4 4 4 5 4 5 4 2 3 1 3 3 4 2 0 7 9 8 7 3 3 3 3 3 2 6 8 8 12 8 8 8 7 8 9 13 12 14 15 17 18 24 25 24 23 22 20 19 15 14 14 14 14 13 13 11 10 8 8 8 7 7 7 9 9
4 5 4 4 5 4 5 2 3 3 2 2 2 2 3 2 3 3 4 4 3 2 3 3 5 4 3 4 4 5 3 3 3 4 3 2 7 8 6 5 3 2 4 4 5 6 1 5 5 7 7 8 10 10 10 8 9 12 14 14 18 18 23 25 25 23 22 19 16 15 15 14 14 14 12 10 9 8 7 7 5 5 6 7 7
6 3 4 5 4 5 4 3 4 3 3 4 3 3 4 4 2 3 3 4 5 5 4 5 6 6 5 5 4 3 2 2 2 1 2 6 4 6 4 4 8 7 5 5 4 5 7 2 7 5 7 9 9 9 10 10 10 10 11 13 17 18 22 26 27 25 23 22 20 18 16 16 15 14 12 10 9 8 8 7 6 5 6 6 4
4 5 5 7 4 3 4 4 5 4 3 4 4 3 4 3 3 3 3 3 5 6 6 6 5 5 6 6 4 3 4 5 2 1 5 5 5 4 6 8 8 8 8 7 4 4 3 4 3 8 7 8 9 11 11 13 14 15 11 11 13 19 23 26 26 26 25 24 23 20 19 18 16 15 13 12 10 9 9 8 8 7 6 5 2
5 7 8 7 8 5 4 3 3 5 6 3 6 5 4 4 2 2 2 3 3 4 5 3 4 4 5 5 5 3 4 4 4 3 5 5 5 5 3 9 9 9 9 8 6 4 5 4 4 5 7 9 7 10 10 13 14 15 13 12 15 23 26 24 26 26 26 26 24 23 22 20 18 16 15 13 11 10 8 8 8 7 6 5 3
7 7 7 7 9 8 7 4 4 5 6 6 5 6 6 5 3 1 2 5 3 3 3 3 4 4 4 4 5 5 5 5 5 4 4 5 5 5 6 7 8 8 10 10 8 4 5 5 5 5 5 10 12 9 9 10 13 19 14 11 15 23 23 20 26 27 26 25 24 23 23 21 19 17 16 14 12 10 8 7 7 nan nan nan nan
10 10 10 7 8 10 9 8 6 7 8 8 8 8 8 7 5 4 6 6 6 5 4 4 4 6 7 6 7 7 7 6 5 4 3 3 4 5 7 8 7 9 9 10 8 5 7 8 6 5 6 8 10 12 10 9 9 11 14 14 15 17 18 20 23 27 27 25 24 23 22 21 20 18 17 15 13 12 nan nan nan nan nan nan nan
10 10 12 11 9 9 9 10 10 8 11 11 9 9 10 11 9 6 5 6 8 7 6 6 6 5 6 6 6 6 7 6 5 3 3 3 4 4 6 6 8 8 9 10 8 8 6 8 6 7 7 10 6 8 10 10 10 9 5 7 11 12 13 17 22 21 25 24 23 23 22 21 20 19 17 16 15 13 nan nan nan nan nan nan nan
11 10 10 11 13 12 9 11 12 11 12 14 12 11 11 12 12 9 7 9 10 8 8 8 7 7 6 7 5 5 4 4 5 5 4 4 4 6 6 7 6 7 9 9 9 8 7 7 7 6 10 9 9 9 9 11 11 10 9 9 9 10 11 11 18 21 25 25 24 22 22 22 21 20 19 17 16 15 nan nan nan nan nan nan nan
10 12 10 10 12 13 12 11 11 12 13 14 14 13 12 12 13 12 11 9 10 11 10 8 8 9 8 8 6 5 5 5 7 6 6 5 6 6 6 8 9 8 8 8 8 8 9 8 9 10 11 10 10 9 9 11 10 11 11 11 10 12 11 12 14 15 21 23 23 21 21 22 22 22 21 20 19 18 nan nan nan nan nan nan nan
9 10 13 12 12 13 11 12 11 11 13 14 14 13 13 12 12 11 11 12 10 11 10 11 10 10 10 8 7 8 7 9 8 11 7 7 9 11 12 10 12 10 8 11 12 13 10 10 11 11 10 9 12 10 12 12 11 12 13 13 13 16 17 19 20 23 25 17 13 12 20 22 23 23 21 22 23 21 nan nan nan nan nan nan nan
14 11 15 14 11 11 12 12 12 12 13 14 15 14 12 12 12 11 12 11 11 12 12 10 11 11 11 12 12 12 10 10 11 12 10 14 16 11 10 11 12 9 13 15 12 15 15 12 12 11 12 11 12 12 14 15 13 13 13 15 16 19 19 20 20 16 15 15 16 13 16 20 22 24 23 23 24 24 nan nan nan nan nan nan nan
13 12 10 14 18 14 15 12 12 13 13 12 14 15 14 13 12 12 12 12 13 13 12 12 11 11 11 12 13 13 12 12 13 13 15 16 13 13 13 15 16 17 17 15 14 14 16 14 13 14 13 13 13 11 15 16 16 17 16 16 17 19 20 21 18 17 14 15 21 23 22 25 25 24 24 24 24 25 nan nan nan nan nan nan nan
13 12 13 12 15 21 19 15 15 16 14 13 15 14 14 13 13 12 13 13 13 13 14 13 13 13 13 11 12 15 14 14 15 17 17 17 15 15 17 19 19 18 16 15 16 17 18 18 16 15 16 14 14 15 17 18 17 18 19 20 18 17 14 15 18 16 16 18 22 22 24 27 25 25 25 22 21 22 22 nan nan nan nan nan nan
18 17 20 18 16 15 21 22 19 17 14 12 13 15 15 13 14 14 13 13 14 14 14 15 16 15 15 15 19 22 18 16 15 17 19 20 20 19 19 20 20 18 18 17 17 19 21 20 18 17 15 15 16 18 20 18 17 18 21 20 19 19 17 14 14 22 24 24 24 27 27 29 28 26 26 26 24 25 21 nan nan nan nan nan nan
23 25 26 25 24 23 22 21 19 17 21 22 23 23 18 20 23 17 17 16 18 23 21 20 21 22 21 19 21 23 21 17 17 20 21 23 21 19 20 19 18 18 19 19 20 21 24 21 20 19 17 17 19 24 22 21 23 23 21 21 18 20 20 18 17 22 27 28 27 24 26 28 29 25 26 27 27 25 23 nan nan nan nan nan nan
25 26 26 24 25 24 22 22 21 24 21 24 24 23 19 24 23 21 21 22 23 23 23 24 18 23 22 23 21 20 19 18 19 23 22 23 23 22 19 18 18 18 19 19 19 23 24 22 23 21 21 20 20 23 23 22 26 25 22 21 19 19 20 22 22 22 27 26 24 29 29 28 29 27 25 26 27 27 nan nan nan nan nan nan nan
24 22 21 23 26 25 24 22 25 23 22 25 26 21 23 28 28 25 27 21 25 27 26 25 25 23 23 20 20 23 23 25 26 25 25 23 22 21 21 20 19 17 19 19 20 21 22 22 23 23 23 22 24 25 22 22 23 24 23 22 22 21 21 22 24 24 25 26 26 28 32 28 28 29 30 29 28 nan nan nan nan nan nan nan nan
30 29 26 24 24 25 25 26 29 27 25 26 22 20 20 24 28 27 25 30 27 26 26 27 24 23 23 23 24 25 27 28 27 27 27 26 23 23 23 23 22 21 21 21 22 22 21 21 21 20 23 25 25 25 26 26 26 24 24 24 24 24 24 23 24 24 23 26 27 29 32 30 29 29 31 32 nan nan nan nan nan nan nan nan nan
30 27 29 26 24 27 28 30 32 30 31 31 28 27 27 28 30 28 27 26 27 28 28 27 26 25 25 25 25 27 28 29 30 29 28 28 28 27 28 29 29 27 26 24 23 24 26 24 20 20 23 26 24 26 27 28 27 25 26 26 27 26 27 25 27 27 25 28 30 33 32 33 32 30 31 32 nan nan nan nan nan nan nan nan nan
30 29 28 25 24 26 29 31 32 33 38 36 32 32 31 33 34 30 30 29 29 29 29 30 29 27 28 28 28 29 31 32 31 30 32 31 30 28 29 29 29 31 31 30 32 32 31 29 27 25 27 26 25 25 28 28 26 24 26 28 30 30 28 29 29 27 27 31 32 36 33 34 38 32 31 nan nan nan nan nan nan nan nan nan nan
35 30 26 27 29 30 32 34 34 42 36 38 37 38 37 36 34 32 31 31 30 30 31 32 31 32 31 31 31 35 33 30 40 41 37 34 31 29 29 29 30 32 32 31 32 30 29 31 31 30 29 29 28 25 23 25 27 26 28 29 31 30 29 31 29 30 29 34 36 nan 36 35 36 37 35 nan nan nan nan nan nan nan nan nan nan
36 32 28 29 31 31 33 36 41 42 38 38 39 40 39 38 35 36 34 34 35 34 34 35 38 38 36 35 36 38 36 33 39 41 41 38 36 33 31 31 32 31 32 33 35 33 31 30 28 28 27 25 25 29 31 28 26 26 28 27 28 33 34 32 34 33 32 34 34 nan nan 37 37 nan 41 nan nan nan nan nan nan nan nan nan nan
39 35 31 27 27 29 32 38 45 42 45 43 44 45 45 42 38 39 39 39 38 40 40 41 40 39 40 42 40 38 35 38 43 44 42 40 38 36 34 32 32 33 34 34 34 36 37 35 32 30 27 26 27 30 28 22 21 30 33 27 27 32 35 37 37 35 37 34 37 39 41 38 nan nan nan nan nan nan nan nan nan nan nan nan nan
43 43 39 32 25 26 28 39 39 48 48 49 51 52 52 51 47 44 45 45 45 42 41 42 42 43 43 42 50 51 47 46 48 48 47 45 43 41 38 36 34 33 36 36 35 35 37 36 36 35 33 34 35 35 30 23 20 26 31 25 25 30 38 39 41 41 39 37 40 41 43 nan nan nan nan nan nan nan nan nan nan nan nan nan nan
Wind_Direction
150 154 162 156 151 143 129 136 147 161 150 140 121 119 124 134 132 129 122 130 135 104 120 79 102 96 116 92 109 122 116 146 119 85 91 22 44 30 22 27 37 43 47 52 56 54 56 54 53 52 55 58 62 64 63 61 59 58 57 55 48 39 38 48 48 52 56 57 56 47 41 36 30 32 35 33 29 25 21 20 18 16 13 11 12
158 158 158 152 143 126 134 152 155 156 148 141 154 134 151 140 141 134 140 129 104 122 127 118 97 116 100 104 99 105 133 131 124 177 342 58 36 42 19 27 32 39 43 49 54 56 56 55 55 56 57 61 64 64 63 61 61 62 61 55 46 41 46 54 56 61 63 64 57 45 44 40 37 38 38 35 31 26 22 19 20 18 16 13 13
161 158 156 144 131 135 154 154 162 154 135 153 140 153 137 134 150 122 132 111 119 143 127 119 115 114 108 120 121 128 112 136 139 109 337 331 346 18 26 17 25 28 33 39 43 46 50 53 53 55 56 59 63 65 63 63 62 60 55 48 42 44 53 61 64 67 66 63 52 43 47 42 39 40 39 35 31 26 23 21 21 20 17 14 13
150 139 143 140 143 149 155 152 150 157 145 151 146 137 146 144 159 115 125 119 118 134 117 131 129 143 115 134 132 140 113 118 73 40 286 337 357 354 351 13 18 19 24 28 32 36 40 43 48 51 54 58 66 68 63 65 60 51 49 43 40 43 50 60 63 65 62 56 48 46 50 47 42 40 38 35 29 25 24 23 22 19 16 13 11
137 136 137 141 146 151 164 146 161 160 141 156 140 157 130 138 114 126 128 130 148 132 120 103 121 129 138 137 152 146 116 72 161 343 350 355 359 352 354 6 16 18 19 23 28 34 35 37 39 43 47 55 64 69 68 73 61 42 43 45 41 40 43 58 64 62 61 53 51 51 51 49 46 43 39 35 29 24 24 24 24 21 17 12 9
137 124 135 151 156 153 145 144 160 147 148 144 155 139 136 149 143 134 158 133 119 130 123 126 133 100 121 192 126 129 122 129 207 195 357 1 354 353 356 3 15 17 21 22 27 31 35 37 38 39 43 48 58 67 67 68 57 40 34 38 41 41 43 56 67 64 59 52 47 50 55 51 48 46 42 37 31 27 26 25 24 21 19 15 10
126 123 144 164 151 147 153 141 152 155 152 160 152 140 140 170 145 140 177 122 148 124 109 131 173 144 140 107 230 89 156 178 265 53 334 339 11 0 351 3 10 13 15 12 21 31 34 34 33 34 37 39 50 62 54 36 39 43 36 35 37 44 52 58 62 65 63 61 60 62 62 56 52 50 45 40 35 32 31 28 26 24 23 18 13
116 146 150 160 150 136 156 157 166 154 145 161 146 130 155 157 128 144 152 136 137 142 143 141 138 77 172 184 185 158 217 170 90 39 334 343 358 343 347 359 5 6 10 9 6 16 29 37 34 28 27 32 38 56 48 16 14 30 38 40 46 48 59 59 56 63 60 63 65 66 66 60 53 51 47 43 36 35 35 31 27 26 26 24 17
139 163 163 152 142 148 135 155 152 150 158 150 152 130 120 132 109 117 111 134 150 156 139 134 134 151 84 31 197 180 238 58 91 42 340 337 341 10 1 16 16 359 6 7 4 8 20 26 32 27 23 26 26 39 52 40 18 18 32 43 52 51 54 59 57 58 58 57 64 64 62 60 55 51 48 41 34 34 36 34 30 27 26 27 27
140 151 150 146 152 150 152 159 167 139 153 142 153 134 158 158 148 125 138 156 151 123 129 145 93 268 81 248 212 76 182 180 166 233 78 20 15 8 11 20 17 14 8 9 1 11 17 19 25 26 24 23 20 6 8 61 74 66 34 43 49 47 47 54 59 58 57 55 57 59 59 58 56 50 44 36 31 31 32 34 32 30 28 28 30
142 149 147 141 145 159 148 161 145 150 137 144 146 141 134 149 145 130 142 136 98 127 139 148 124 80 357 301 337 215 121 208 296 96 23 34 40 17 9 12 26 12 15 11 15 11 15 10 12 13 13 22 16 359 347 23 60 75 71 62 51 40 42 44 48 54 59 58 56 60 61 63 57 45 38 32 28 27 29 31 32 32 31 29 30
145 153 159 147 155 150 139 158 142 141 161 148 163 123 112 149 93 149 148 124 126 116 127 117 120 179 174 217 251 315 76 331 67 76 22 30 38 48 32 16 13 13 17 27 34 24 8 2 3 1 5 9 15 12 343 1 23 40 52 56 56 52 48 44 45 48 53 55 60 65 68 60 49 39 32 28 24 24 25 28 31 31 33 33 32
143 154 152 161 155 143 149 160 144 157 156 162 129 131 142 119 114 108 127 139 140 148 139 173 184 184 184 140 354 38 110 96 66 60 8 45 5 358 50 22 5 18 16 27 36 41 359 6 359 1 3 357 0 5 355 352 7 23 34 39 40 43 44 42 44 46 46 50 56 65 56 40 35 32 26 23 21 21 24 27 28 30 35 36 35
144 159 146 146 144 148 147 160 151 142 148 79 95 111 117 106 114 116 144 137 152 131 145 184 172 165 159 133 122 95 351 30 43 54 20 204 325 9 36 nan 40 7 13 37 29 44 27 2 1 359 7 1 0 346 342 353 357 6 19 26 30 31 32 35 40 44 45 50 54 47 34 29 26 23 20 16 17 20 24 27 26 29 35 37 38
150 147 143 146 159 151 149 143 145 123 128 122 109 82 86 100 114 139 144 158 161 135 167 126 151 132 152 187 139 110 192 184 159 93 301 nan 128 59 2 70 152 72 22 43 31 15 82 346 4 7 5 6 354 343 346 355 6 358 359 3 15 24 29 33 35 36 37 37 32 30 24 22 18 17 16 15 18 19 25 28 27 30 35 37 39
135 138 139 168 136 146 144 155 126 145 117 129 92 66 91 113 212 151 171 164 144 132 147 140 154 178 170 151 126 309 234 189 237 187 197 301 321 nan 241 35 nan 7 99 55 351 341 34 50 25 14 7 4 352 353 0 8 8 1 358 349 353 4 14 22 26 29 30 29 27 25 21 17 15 14 15 18 21 20 24 29 30 32 34 34 39
138 138 144 166 146 171 149 115 127 107 87 88 101 85 67 67 203 141 150 155 137 137 144 174 154 175 163 173 159 221 223 113 219 130 217 91 312 331 19 9 334 332 334 324 2 34 25 23 44 42 19 1 8 9 9 6 8 358 347 344 355 9 14 20 25 27 27 27 25 24 19 15 12 14 18 24 26 26 29 34 37 39 36 33 37
144 144 169 145 136 171 117 144 136 133 141 161 127 133 120 132 120 157 153 135 151 151 148 153 157 152 137 38 360 326 350 84 272 66 97 310 14 29 18 281 311 339 331 328 355 36 34 21 24 4 356 7 14 6 8 11 10 2 352 348 2 6 14 22 25 27 26 27 25 21 19 15 13 18 23 30 32 32 37 42 43 45 39 33 35
136 144 169 143 157 170 152 160 154 129 135 78 90 87 152 162 139 170 159 159 149 158 151 143 153 174 181 170 143 231 315 247 294 307 189 172 147 334 348 313 341 356 0 341 360 11 22 10 20 347 1 11 17 18 9 20 17 351 5 359 359 10 15 25 26 29 31 29 26 23 21 17 17 23 28 35 38 36 41 47 48 48 47 40 36
138 159 152 178 187 162 156 148 131 141 124 140 108 213 204 134 134 170 175 147 151 141 170 149 158 160 173 158 167 166 170 73 248 282 300 118 99 16 280 294 339 357 21 355 355 17 18 11 4 1 341 16 28 27 21 15 22 15 3 350 11 12 17 21 26 31 33 32 29 27 25 21 21 27 30 36 37 38 42 49 51 52 52 49 43
163 155 151 179 216 123 170 165 151 139 168 138 128 320 43 203 195 182 142 127 117 138 166 157 154 214 166 163 144 160 159 204 278 270 274 338 29 147 310 319 324 16 17 9 6 12 8 353 348 334 339 13 42 36 11 13 20 5 14 359 3 14 15 16 22 28 26 32 33 30 28 27 28 30 34 37 38 37 43 49 53 54 54 55 53
194 164 164 176 171 190 167 97 133 139 129 195 224 226 239 201 175 144 145 164 184 155 124 135 182 152 166 67 129 148 203 160 282 280 275 303 352 83 330 323 2 20 30 27 11 15 1 341 343 343 348 12 23 34 19 25 30 23 358 355 9 11 13 11 15 17 16 26 30 29 30 30 34 34 34 37 39 40 41 47 52 54 56 57 58
259 232 184 172 185 184 154 118 124 237 183 189 180 177 167 154 94 107 185 144 153 144 155 153 121 97 114 99 82 104 99 22 257 268 311 309 284 104 121 11 23 37 8 53 9 347 335 358 2 340 357 10 11 22 23 20 51 32 342 3 8 11 7 4 7 9 11 21 23 26 26 27 33 34 34 37 38 41 41 43 47 53 59 58 59
228 278 289 339 226 201 166 186 203 193 203 180 141 197 160 171 160 225 144 171 158 169 162 168 159 173 155 127 154 162 188 211 280 316 340 311 325 35 71 261 97 41 92 24 333 330 348 2 350 344 351 1 19 17 358 20 36 29 22 3 7 5 357 358 2 4 11 16 20 19 18 21 22 24 34 40 40 41 39 38 41 50 60 61 61
232 268 307 350 269 258 177 184 209 179 176 177 176 167 183 164 147 150 151 226 184 158 186 152 151 177 188 198 177 79 277 297 293 320 328 283 284 284 254 320 357 14 18 68 351 338 355 18 350 336 351 17 26 9 347 12 13 13 17 357 4 353 354 356 360 4 9 15 17 11 13 15 12 16 25 35 39 42 40 40 39 43 55 61 64
229 210 230 301 278 294 234 185 197 194 184 191 162 163 178 171 170 169 139 199 188 193 199 157 171 146 173 197 215 192 197 182 318 345 311 279 13 336 343 330 356 346 346 328 305 322 130 26 36 6 0 10 12 349 352 359 16 24 23 5 357 352 351 357 1 4 8 12 12 12 11 8 10 12 16 22 35 44 44 45 41 38 46 54 61
182 236 201 230 234 264 287 229 223 201 216 195 165 197 184 189 177 173 171 173 199 189 189 156 151 169 191 234 279 208 169 206 154 84 62 309 334 331 347 341 300 316 281 307 345 310 353 1 18 349 346 359 355 348 357 15 354 6 21 359 354 353 350 357 359 5 5 7 8 8 9 6 7 11 13 16 20 31 45 50 45 43 45 49 54
236 220 266 194 221 245 281 280 248 284 262 235 221 231 265 217 206 192 175 157 179 203 204 162 164 164 160 189 198 173 186 171 167 196 220 256 309 325 330 322 315 305 316 331 343 316 352 347 328 328 336 342 353 353 358 357 4 9 7 1 347 345 351 356 357 2 359 357 0 4 5 2 3 6 11 10 9 16 25 40 45 45 51 53 51
278 251 265 254 215 213 257 314 291 266 285 277 267 234 239 248 244 234 203 161 184 198 204 199 191 168 170 158 209 202 234 262 232 264 301 286 309 304 278 285 311 313 307 321 342 347 359 21 322 326 322 343 352 343 334 351 354 1 2 1 340 342 352 358 357 357 351 353 354 359 357 355 355 1 2 1 5 4 5 17 24 36 50 55 54
256 290 271 288 261 260 225 233 280 299 281 296 289 279 262 258 230 250 241 216 188 199 205 195 183 186 177 169 196 215 237 242 257 302 286 301 305 338 327 310 304 310 315 326 332 341 341 292 301 318 333 336 343 331 347 350 360 359 8 3 329 337 348 360 359 354 350 350 350 348 350 346 350 353 350 352 357 357 354 358 6 10 26 41 44
243 231 273 289 288 281 257 257 244 280 298 285 286 284 285 270 251 241 267 256 228 203 211 207 173 186 195 195 220 259 276 270 265 297 304 292 298 288 291 303 314 306 310 315 303 306 290 288 301 292 305 329 332 334 348 342 355 0 2 353 329 341 350 359 2 352 348 351 345 342 342 345 351 348 344 343 347 347 340 345 351 359 4 10 341
279 277 253 272 295 307 317 318 317 315 304 308 309 297 291 284 279 272 262 291 275 241 204 201 181 210 245 268 282 280 278 284 298 304 308 316 327 333 312 307 310 308 307 306 307 336 303 304 296 299 318 314 323 339 341 350 345 359 356 356 346 346 348 354 356 353 347 344 340 338 339 344 347 343 337 338 340 335 330 330 329 nan nan nan nan
284 292 290 273 269 295 307 303 314 292 292 289 290 286 291 290 280 239 211 238 268 258 250 221 206 215 227 234 256 263 275 284 287 290 298 317 324 334 327 312 323 304 300 299 310 317 308 303 307 324 323 315 321 331 343 328 332 331 352 356 353 351 355 351 345 346 342 338 336 337 336 338 340 335 331 334 332 329 nan nan nan nan nan nan nan
280 291 293 301 289 275 291 296 292 286 281 286 293 284 288 290 296 296 289 258 264 271 258 257 259 260 268 273 267 279 288 306 321 340 314 330 335 315 297 298 285 282 295 295 299 302 304 298 315 325 311 278 290 307 307 302 311 321 331 351 352 357 353 322 333 337 335 334 332 333 332 336 337 330 326 327 322 324 nan nan nan nan nan nan nan
290 286 286 297 285 285 279 272 277 280 271 285 282 272 272 281 284 286 284 283 288 287 288 289 290 283 286 275 279 290 304 293 307 321 327 316 293 273 255 253 251 258 286 289 291 295 291 292 295 286 280 277 295 292 286 296 312 317 325 336 339 330 324 324 324 332 332 331 329 330 333 333 330 323 323 323 318 318 nan nan nan nan nan nan nan
296 289 287 282 282 280 285 279 269 264 266 264 271 277 270 268 277 282 279 267 270 285 287 283 282 277 272 266 266 257 254 259 262 270 267 251 255 261 267 266 264 253 258 273 279 273 269 269 278 272 271 278 290 289 292 296 305 311 322 324 321 314 304 300 288 302 319 313 323 330 332 332 326 320 319 321 317 316 nan nan nan nan nan nan nan
274 278 280 274 268 278 289 285 279 271 268 267 264 269 271 274 277 282 283 283 279 272 275 274 277 272 266 271 270 266 261 261 250 239 226 250 248 232 235 235 258 259 254 262 257 260 259 255 254 267 271 283 290 297 296 297 305 314 316 315 307 304 298 293 302 300 292 282 282 321 333 330 321 319 320 317 313 313 nan nan nan nan nan nan nan
259 259 276 277 274 272 273 271 276 273 266 264 264 266 268 268 277 284 279 279 281 279 275 276 272 267 269 264 259 259 261 260 259 274 265 244 242 255 265 254 254 270 264 253 260 269 269 268 269 268 280 278 286 299 304 303 302 300 306 307 307 300 296 295 299 303 298 300 313 332 338 330 317 317 319 317 313 312 nan nan nan nan nan nan nan
278 285 284 277 273 263 260 262 264 265 270 272 265 264 268 263 260 266 274 278 277 276 283 284 280 282 280 280 275 271 264 267 271 265 260 256 274 278 273 273 263 262 267 275 273 278 280 276 273 280 280 283 289 289 294 294 299 306 306 305 307 306 306 301 299 304 311 323 324 333 342 332 328 321 321 316 314 310 nan nan nan nan nan nan nan
268 264 263 266 268 269 259 252 253 251 251 259 260 259 261 264 260 259 262 261 270 277 279 279 275 271 271 268 278 275 272 269 267 267 264 279 273 266 266 266 266 267 268 276 280 276 277 275 274 270 278 279 286 293 290 290 292 295 296 299 303 304 300 300 305 302 317 320 308 313 319 316 316 310 316 315 318 314 312 nan nan nan nan nan nan
236 241 256 244 244 257 269 266 259 252 253 256 259 251 258 264 256 248 252 267 269 268 267 269 275 276 274 274 267 263 261 264 268 274 272 260 262 268 274 272 273 277 276 280 283 282 271 272 277 283 285 288 290 290 287 288 294 294 293 294 300 304 301 294 305 312 319 317 318 323 327 323 319 319 315 313 317 305 292 nan nan nan nan nan nan
235 248 246 247 244 249 255 257 258 255 247 241 242 227 227 253 257 254 243 236 244 244 247 256 259 259 260 255 264 276 268 265 264 273 279 285 285 281 278 276 278 282 285 282 286 285 286 288 288 285 283 282 286 290 293 292 288 287 290 293 297 297 297 298 298 306 313 314 314 325 321 322 322 322 320 319 311 301 303 nan nan nan nan nan nan
224 229 248 249 249 243 240 244 253 254 257 252 238 231 234 258 262 264 260 246 252 255 249 247 249 255 257 263 273 275 277 272 273 281 276 275 279 276 276 275 276 277 280 285 285 283 285 290 291 291 293 289 284 285 290 291 291 288 287 289 295 293 294 290 291 292 303 310 311 311 319 323 323 323 318 307 304 304 nan nan nan nan nan nan nan
253 246 235 247 251 249 243 238 244 252 249 257 265 262 252 252 255 253 259 264 261 261 257 252 249 250 253 262 269 271 276 273 274 276 278 280 282 285 286 286 287 287 280 274 270 274 282 286 289 292 289 288 285 279 281 283 288 289 294 296 298 300 300 299 298 305 301 297 305 309 313 318 322 316 307 304 304 nan nan nan nan nan nan nan nan
236 237 240 244 247 249 250 245 249 254 251 257 269 265 261 263 266 263 258 262 256 260 263 265 260 258 261 258 262 267 269 275 273 273 274 275 278 281 285 287 286 288 286 285 287 282 273 276 281 282 286 283 285 290 291 289 287 290 292 294 295 298 301 301 303 300 301 304 306 306 309 316 319 315 310 307 nan nan nan nan nan nan nan nan nan
236 241 241 236 239 247 249 249 248 249 253 256 257 258 259 261 260 259 261 258 264 266 266 268 268 266 265 264 264 268 268 269 270 273 274 275 274 274 278 280 280 279 281 285 283 285 284 278 272 270 274 278 284 284 286 288 291 293 291 292 293 296 300 303 299 298 297 300 299 297 303 313 317 315 311 312 nan nan nan nan nan nan nan nan nan
244 245 246 249 253 252 252 254 256 254 250 244 251 254 253 255 258 254 256 259 260 261 260 264 268 269 268 268 268 265 266 265 261 263 269 269 269 269 270 271 275 277 278 277 275 277 279 281 280 280 279 278 279 280 287 292 292 291 291 291 292 292 292 289 288 292 297 296 294 296 303 306 310 311 310 nan nan nan nan nan nan nan nan nan nan
247 249 248 251 253 257 261 261 260 256 254 247 251 253 255 256 257 259 258 259 261 263 265 262 262 262 262 262 264 261 256 260 262 259 258 260 259 259 262 266 271 278 279 277 280 280 279 280 282 286 281 279 275 275 275 286 293 290 286 286 285 288 292 293 294 294 296 290 285 nan 297 300 306 307 304 nan nan nan nan nan nan nan nan nan nan
246 243 243 245 253 259 265 269 266 266 265 252 250 252 253 253 259 261 257 255 258 264 268 264 257 253 252 252 253 259 259 260 261 260 257 258 261 259 259 259 263 268 270 268 278 282 282 279 279 277 281 284 283 278 268 265 276 276 276 281 288 291 294 295 293 296 295 290 288 nan nan 301 302 nan 299 nan nan nan nan nan nan nan nan nan nan
245 244 246 245 249 255 257 266 267 272 266 257 252 251 250 248 254 260 260 260 261 260 260 258 257 257 255 250 251 257 258 257 256 259 257 259 262 260 260 260 260 263 266 267 271 277 278 278 280 283 283 280 279 276 276 286 293 286 285 296 296 293 295 294 293 293 290 289 291 290 294 299 nan nan nan nan nan nan nan nan nan nan nan nan nan
245 241 241 243 249 259 266 270 280 272 266 259 255 254 252 251 253 259 259 263 263 262 262 261 262 263 262 255 252 255 259 259 256 256 256 258 258 257 258 259 260 261 265 266 268 268 270 274 276 279 280 280 281 284 286 293 298 295 292 293 283 286 291 292 292 292 291 291 291 290 292 nan nan nan nan nan nan nan nan nan nan nan nan nan nan